Wetterdaten: Samstag, 13.09.2014
Datum Zeit Temperatur Luftfeuchte Luftdruck Regen Wind Richtung Richtung Taupunkt Windchill Windben
13.09.2014 00:00 8,8 C 94 % 1018,9 hPa 0,0 l/m 1,0 km/h (0 Bft) W-SW 247 7,9 C 8,3 C 0,0 km/h (0 Bft)
13.09.2014 00:10 8,8 C 94 % 1018,8 hPa 0,0 l/m 1,4 km/h (1 Bft) S-SW 202 7,9 C 8,4 C 2,7 km/h (1 Bft)
13.09.2014 00:20 8,9 C 94 % 1018,8 hPa 0,0 l/m 2,4 km/h (1 Bft) SW 225 8,0 C 8,4 C 1,8 km/h (1 Bft)
13.09.2014 00:30 9,0 C 94 % 1018,8 hPa 0,0 l/m 1,3 km/h (1 Bft) S 180 8,1 C 8,5 C 6,4 km/h (2 Bft)
13.09.2014 00:40 8,9 C 94 % 1018,8 hPa 0,0 l/m 1,3 km/h (1 Bft) S-SO 157 8,0 C 8,7 C 1,8 km/h (1 Bft)
13.09.2014 00:50 9,0 C 94 % 1018,8 hPa 0,0 l/m 2,4 km/h (1 Bft) W 270 8,1 C 8,7 C 6,8 km/h (2 Bft)
13.09.2014 01:00 9,0 C 94 % 1018,8 hPa 0,0 l/m 2,3 km/h (1 Bft) W-SW 247 8,1 C 8,9 C 4,2 km/h (1 Bft)
13.09.2014 01:10 9,0 C 94 % 1019,0 hPa 0,0 l/m 2,1 km/h (1 Bft) SO 135 8,1 C 9,0 C 2,1 km/h (1 Bft)
13.09.2014 01:20 9,1 C 94 % 1019,0 hPa 0,0 l/m 1,1 km/h (1 Bft) W 270 8,2 C 9,0 C 0,0 km/h (0 Bft)
13.09.2014 01:30 9,1 C 94 % 1018,9 hPa 0,0 l/m 1,0 km/h (0 Bft) S 180 8,2 C 9,0 C 3,4 km/h (1 Bft)
13.09.2014 01:40 9,2 C 94 % 1018,9 hPa 0,0 l/m 1,8 km/h (1 Bft) SW 225 8,3 C 9,1 C 1,8 km/h (1 Bft)
13.09.2014 01:50 9,2 C 94 % 1019,2 hPa 0,0 l/m 1,4 km/h (1 Bft) S 180 8,3 C 9,2 C 2,1 km/h (1 Bft)
13.09.2014 02:00 9,2 C 94 % 1019,2 hPa 0,0 l/m 1,6 km/h (1 Bft) W-SW 247 8,3 C 9,2 C 1,6 km/h (1 Bft)
13.09.2014 02:10 9,2 C 94 % 1019,3 hPa 0,0 l/m 1,9 km/h (1 Bft) SW 225 8,3 C 9,2 C 2,1 km/h (1 Bft)
13.09.2014 02:20 9,3 C 94 % 1019,3 hPa 0,0 l/m 0,8 km/h (0 Bft) W-SW 247 8,4 C 9,2 C 2,4 km/h (1 Bft)
13.09.2014 02:30 9,3 C 93 % 1019,4 hPa 0,0 l/m 1,6 km/h (1 Bft) S 180 8,2 C 9,3 C 2,1 km/h (1 Bft)
13.09.2014 02:40 9,2 C 93 % 1019,4 hPa 0,0 l/m 1,8 km/h (1 Bft) W 270 8,1 C 9,3 C 0,0 km/h (0 Bft)
13.09.2014 02:48 9,2 C 93 % 1019,4 hPa 0,0 l/m 1,1 km/h (1 Bft) S-SW 202 8,1 C 9,2 C 2,9 km/h (1 Bft)
13.09.2014 02:50 9,2 C 93 % 1019,4 hPa 0,0 l/m 1,1 km/h (1 Bft) S-SW 202 8,1 C 9,2 C 2,9 km/h (1 Bft)
13.09.2014 03:00 9,2 C 93 % 1019,4 hPa 0,0 l/m 1,3 km/h (1 Bft) W-SW 247 8,1 C 9,2 C 3,4 km/h (1 Bft)
13.09.2014 03:10 9,2 C 93 % 1019,3 hPa 0,0 l/m 1,6 km/h (1 Bft) N-NW 337 8,1 C 9,2 C 1,8 km/h (1 Bft)
13.09.2014 03:20 9,2 C 93 % 1019,3 hPa 0,0 l/m 1,0 km/h (0 Bft) SW 225 8,1 C 9,2 C 0,0 km/h (0 Bft)
13.09.2014 03:30 9,2 C 93 % 1019,1 hPa 0,0 l/m 1,9 km/h (1 Bft) W 270 8,1 C 9,2 C 1,8 km/h (1 Bft)
13.09.2014 03:40 9,1 C 93 % 1019,1 hPa 0,0 l/m 1,0 km/h (0 Bft) S 180 8,0 C 9,2 C 2,1 km/h (1 Bft)
13.09.2014 03:50 9,0 C 93 % 1019,4 hPa 0,0 l/m 1,3 km/h (1 Bft) O-SO 112 7,9 C 8,8 C 0,0 km/h (0 Bft)
13.09.2014 04:00 8,9 C 93 % 1019,4 hPa 0,0 l/m 0,2 km/h (0 Bft) S-SO 157 7,8 C 8,6 C 0,0 km/h (0 Bft)
13.09.2014 04:10 8,8 C 94 % 1019,4 hPa 0,0 l/m 0,2 km/h (0 Bft) SO 135 7,9 C 8,5 C 1,8 km/h (1 Bft)
13.09.2014 04:20 8,8 C 94 % 1019,4 hPa 0,0 l/m 0,6 km/h (0 Bft) S-SO 157 7,9 C 8,5 C 0,0 km/h (0 Bft)
13.09.2014 04:30 8,8 C 94 % 1019,4 hPa 0,0 l/m 0,8 km/h (0 Bft) S-SO 157 7,9 C 8,5 C 1,6 km/h (1 Bft)
13.09.2014 04:40 8,8 C 94 % 1019,4 hPa 0,0 l/m 0,2 km/h (0 Bft) S-SO 157 7,9 C 8,5 C 0,0 km/h (0 Bft)
13.09.2014 04:50 8,9 C 94 % 1019,6 hPa 0,0 l/m 0,0 km/h (0 Bft) O-SO 112 8,0 C 8,6 C 0,0 km/h (0 Bft)
13.09.2014 05:00 8,9 C 94 % 1019,6 hPa 0,0 l/m 0,0 km/h (0 Bft) S-SO 157 8,0 C 8,6 C 0,0 km/h (0 Bft)
13.09.2014 05:10 8,9 C 94 % 1019,7 hPa 0,0 l/m 0,2 km/h (0 Bft) SO 135 8,0 C 8,7 C 0,0 km/h (0 Bft)
13.09.2014 05:20 8,9 C 95 % 1019,7 hPa 0,0 l/m 0,0 km/h (0 Bft) S 180 8,1 C 8,7 C 0,0 km/h (0 Bft)
13.09.2014 05:30 8,9 C 95 % 1019,8 hPa 0,0 l/m 0,8 km/h (0 Bft) W 270 8,1 C 8,7 C 2,1 km/h (1 Bft)
13.09.2014 05:40 8,9 C 95 % 1019,8 hPa 0,0 l/m 0,2 km/h (0 Bft) SO 135 8,1 C 8,7 C 2,6 km/h (1 Bft)
13.09.2014 05:49 9,0 C 95 % 1019,7 hPa 0,0 l/m 0,6 km/h (0 Bft) W-SW 247 8,2 C 8,7 C 0,0 km/h (0 Bft)
13.09.2014 05:50 9,0 C 95 % 1019,7 hPa 0,0 l/m 0,6 km/h (0 Bft) W-SW 247 8,2 C 8,7 C 0,0 km/h (0 Bft)
13.09.2014 06:00 9,0 C 95 % 1019,7 hPa 0,0 l/m 0,5 km/h (0 Bft) W-NW 292 8,2 C 8,8 C 0,0 km/h (0 Bft)
13.09.2014 06:10 9,0 C 95 % 1019,6 hPa 0,0 l/m 0,8 km/h (0 Bft) W 270 8,2 C 8,8 C 3,5 km/h (1 Bft)
13.09.2014 06:20 9,0 C 95 % 1019,6 hPa 0,0 l/m 2,1 km/h (1 Bft) W 270 8,2 C 8,8 C 8,2 km/h (2 Bft)
13.09.2014 06:30 9,1 C 95 % 1019,4 hPa 0,0 l/m 3,2 km/h (1 Bft) N-NW 337 8,3 C 8,8 C 2,1 km/h (1 Bft)
13.09.2014 06:40 9,2 C 95 % 1019,4 hPa 0,0 l/m 4,5 km/h (1 Bft) W-SW 247 8,4 C 8,7 C 11,7 km/h (2 Bft)
13.09.2014 06:50 9,2 C 95 % 1019,5 hPa 0,0 l/m 6,3 km/h (2 Bft) W 270 8,4 C 8,2 C 13,8 km/h (3 Bft)
13.09.2014 07:00 9,2 C 95 % 1019,5 hPa 0,0 l/m 4,8 km/h (1 Bft) S-SW 202 8,4 C 8,7 C 10,5 km/h (2 Bft)
13.09.2014 07:10 9,3 C 95 % 1019,9 hPa 0,0 l/m 4,0 km/h (1 Bft) W-SW 247 8,5 C 8,9 C 4,5 km/h (1 Bft)
13.09.2014 07:20 9,3 C 95 % 1019,9 hPa 0,0 l/m 3,4 km/h (1 Bft) NW 315 8,5 C 9,0 C 2,6 km/h (1 Bft)
13.09.2014 07:30 9,3 C 95 % 1020,1 hPa 0,0 l/m 2,6 km/h (1 Bft) W 270 8,5 C 9,0 C 3,4 km/h (1 Bft)
13.09.2014 07:40 9,4 C 95 % 1020,1 hPa 0,0 l/m 2,9 km/h (1 Bft) W 270 8,6 C 9,1 C 5,0 km/h (1 Bft)
13.09.2014 07:50 9,5 C 95 % 1020,4 hPa 0,0 l/m 4,8 km/h (1 Bft) W-NW 292 8,7 C 8,9 C 4,8 km/h (1 Bft)
13.09.2014 08:00 9,6 C 95 % 1020,4 hPa 0,0 l/m 3,4 km/h (1 Bft) W-NW 292 8,8 C 9,2 C 5,6 km/h (1 Bft)
13.09.2014 08:10 9,7 C 95 % 1020,4 hPa 0,0 l/m 2,6 km/h (1 Bft) W-NW 292 8,9 C 9,4 C 4,0 km/h (1 Bft)
13.09.2014 08:20 9,9 C 95 % 1020,4 hPa 0,0 l/m 3,9 km/h (1 Bft) W 270 9,1 C 9,5 C 7,1 km/h (2 Bft)
13.09.2014 08:30 10,2 C 95 % 1020,6 hPa 0,0 l/m 4,5 km/h (1 Bft) NW 315 9,4 C 9,8 C 7,1 km/h (2 Bft)
13.09.2014 08:40 10,4 C 95 % 1020,6 hPa 0,0 l/m 4,3 km/h (1 Bft) W 270 9,6 C 9,9 C 4,3 km/h (1 Bft)
13.09.2014 08:50 10,3 C 95 % 1020,6 hPa 0,0 l/m 5,6 km/h (1 Bft) W-SW 247 9,5 C 9,6 C 8,4 km/h (2 Bft)
13.09.2014 09:00 10,6 C 95 % 1020,6 hPa 0,0 l/m 3,5 km/h (1 Bft) W-SW 247 9,8 C 10,2 C 7,9 km/h (2 Bft)
13.09.2014 09:10 10,5 C 95 % 1021,0 hPa 0,0 l/m 4,3 km/h (1 Bft) W-SW 247 9,7 C 10,2 C 8,7 km/h (2 Bft)
13.09.2014 09:20 10,8 C 95 % 1021,0 hPa 0,0 l/m 3,9 km/h (1 Bft) W 270 10,0 C 10,4 C 5,8 km/h (2 Bft)
13.09.2014 09:30 10,9 C 95 % 1021,4 hPa 0,0 l/m 5,0 km/h (1 Bft) W-SW 247 10,1 C 10,3 C 9,0 km/h (2 Bft)
13.09.2014 09:38 10,9 C 95 % 1021,4 hPa 0,0 l/m 5,0 km/h (1 Bft) W 270 10,1 C 10,3 C 6,6 km/h (2 Bft)
13.09.2014 09:40 10,9 C 95 % 1021,4 hPa 0,0 l/m 5,0 km/h (1 Bft) W 270 10,1 C 10,3 C 6,6 km/h (2 Bft)
13.09.2014 09:50 11,3 C 94 % 1021,4 hPa 0,0 l/m 3,9 km/h (1 Bft) N 360 10,4 C 10,7 C 3,2 km/h (1 Bft)
13.09.2014 10:00 11,2 C 94 % 1021,4 hPa 0,0 l/m 3,4 km/h (1 Bft) NW 315 10,3 C 10,7 C 4,8 km/h (1 Bft)
13.09.2014 10:10 10,9 C 94 % 1021,8 hPa 0,0 l/m 3,9 km/h (1 Bft) NW 315 10,0 C 10,6 C 4,2 km/h (1 Bft)
13.09.2014 10:20 11,3 C 94 % 1021,8 hPa 0,0 l/m 4,3 km/h (1 Bft) W-SW 247 10,4 C 10,7 C 4,5 km/h (1 Bft)
13.09.2014 10:30 11,8 C 94 % 1021,8 hPa 0,0 l/m 3,5 km/h (1 Bft) W-SW 247 10,9 C 11,3 C 3,5 km/h (1 Bft)
13.09.2014 10:40 11,8 C 93 % 1021,8 hPa 0,0 l/m 2,7 km/h (1 Bft) W-SW 247 10,7 C 11,5 C 1,9 km/h (1 Bft)
13.09.2014 10:50 12,3 C 93 % 1021,9 hPa 0,0 l/m 2,6 km/h (1 Bft) W 270 11,2 C 11,9 C 4,8 km/h (1 Bft)
13.09.2014 11:00 12,2 C 92 % 1021,9 hPa 0,0 l/m 3,1 km/h (1 Bft) NW 315 10,9 C 12,3 C 4,2 km/h (1 Bft)
13.09.2014 11:10 12,6 C 91 % 1022,0 hPa 0,0 l/m 3,2 km/h (1 Bft) W-SW 247 11,2 C 12,8 C 3,4 km/h (1 Bft)
13.09.2014 11:20 13,0 C 89 % 1022,0 hPa 0,0 l/m 4,3 km/h (1 Bft) NW 315 11,2 C 13,5 C 4,8 km/h (1 Bft)
13.09.2014 11:30 13,4 C 88 % 1021,9 hPa 0,0 l/m 3,1 km/h (1 Bft) W-SW 247 11,5 C 14,6 C 4,5 km/h (1 Bft)
13.09.2014 11:40 13,8 C 86 % 1021,9 hPa 0,0 l/m 5,1 km/h (1 Bft) SW 225 11,5 C 15,0 C 6,6 km/h (2 Bft)
13.09.2014 11:50 14,3 C 84 % 1021,9 hPa 0,0 l/m 4,0 km/h (1 Bft) S 180 11,6 C 16,1 C 5,8 km/h (2 Bft)
13.09.2014 12:00 16,2 C 78 % 1021,9 hPa 0,0 l/m 2,6 km/h (1 Bft) SW 225 12,4 C 17,9 C 0,0 km/h (0 Bft)
13.09.2014 12:10 14,1 C 81 % 1021,8 hPa 0,0 l/m 3,9 km/h (1 Bft) N 360 10,9 C 17,0 C 2,6 km/h (1 Bft)
13.09.2014 12:20 13,3 C 82 % 1021,8 hPa 0,0 l/m 4,0 km/h (1 Bft) W-SW 247 10,3 C 14,9 C 6,9 km/h (2 Bft)
13.09.2014 12:30 13,4 C 85 % 1022,1 hPa 0,0 l/m 3,2 km/h (1 Bft) NW 315 10,9 C 14,2 C 2,9 km/h (1 Bft)
13.09.2014 12:39 13,6 C 84 % 1022,1 hPa 0,0 l/m 2,9 km/h (1 Bft) W-SW 247 10,9 C 14,5 C 3,5 km/h (1 Bft)
13.09.2014 12:40 13,6 C 84 % 1022,1 hPa 0,0 l/m 2,9 km/h (1 Bft) W-SW 247 10,9 C 14,5 C 3,5 km/h (1 Bft)
13.09.2014 12:50 14,0 C 83 % 1022,3 hPa 0,0 l/m 4,2 km/h (1 Bft) W-SW 247 11,2 C 15,0 C 5,6 km/h (1 Bft)
13.09.2014 13:00 14,1 C 83 % 1022,3 hPa 0,0 l/m 4,0 km/h (1 Bft) W 270 11,3 C 15,3 C 7,2 km/h (2 Bft)
13.09.2014 13:10 14,1 C 81 % 1022,0 hPa 0,0 l/m 4,7 km/h (1 Bft) W-NW 292 10,9 C 15,1 C 2,4 km/h (1 Bft)
13.09.2014 13:20 14,7 C 82 % 1022,0 hPa 0,0 l/m 4,3 km/h (1 Bft) W 270 11,7 C 15,5 C 6,8 km/h (2 Bft)
13.09.2014 13:30 14,5 C 79 % 1021,9 hPa 0,0 l/m 5,0 km/h (1 Bft) W-NW 292 10,9 C 15,4 C 4,8 km/h (1 Bft)
13.09.2014 13:40 14,4 C 78 % 1021,9 hPa 0,0 l/m 4,8 km/h (1 Bft) SW 225 10,6 C 15,2 C 7,6 km/h (2 Bft)
13.09.2014 13:50 17,0 C 72 % 1022,1 hPa 0,0 l/m 5,0 km/h (1 Bft) W 270 11,9 C 18,0 C 10,1 km/h (2 Bft)
13.09.2014 14:00 15,9 C 70 % 1022,1 hPa 0,0 l/m 6,1 km/h (2 Bft) N-NW 337 10,4 C 17,7 C 6,9 km/h (2 Bft)
13.09.2014 14:10 17,7 C 68 % 1022,2 hPa 0,0 l/m 7,1 km/h (2 Bft) W-SW 247 11,7 C 18,1 C 11,1 km/h (2 Bft)
13.09.2014 14:20 19,7 C 60 % 1022,2 hPa 0,0 l/m 6,8 km/h (2 Bft) NW 315 11,7 C 21,0 C 6,1 km/h (2 Bft)
13.09.2014 14:30 19,0 C 55 % 1022,5 hPa 0,0 l/m 6,0 km/h (2 Bft) NW 315 9,8 C 20,8 C 6,8 km/h (2 Bft)
13.09.2014 14:40 18,8 C 55 % 1022,5 hPa 0,0 l/m 5,0 km/h (1 Bft) NW 315 9,6 C 20,8 C 6,6 km/h (2 Bft)
13.09.2014 14:50 18,5 C 56 % 1022,4 hPa 0,0 l/m 4,5 km/h (1 Bft) W-SW 247 9,6 C 20,6 C 0,0 km/h (0 Bft)
13.09.2014 15:00 17,9 C 54 % 1022,4 hPa 0,0 l/m 3,7 km/h (1 Bft) W 270 8,5 C 20,3 C 5,1 km/h (1 Bft)
13.09.2014 15:10 16,9 C 58 % 1022,5 hPa 0,0 l/m 4,3 km/h (1 Bft) N-NO 22 8,6 C 18,6 C 5,0 km/h (1 Bft)
13.09.2014 15:20 15,6 C 62 % 1022,5 hPa 0,0 l/m 3,5 km/h (1 Bft) NW 315 8,3 C 16,8 C 2,3 km/h (1 Bft)
13.09.2014 15:30 15,6 C 63 % 1022,6 hPa 0,0 l/m 2,6 km/h (1 Bft) NO 45 8,6 C 16,2 C 5,0 km/h (1 Bft)
13.09.2014 15:40 16,1 C 61 % 1022,6 hPa 0,0 l/m 3,5 km/h (1 Bft) NW 315 8,6 C 16,4 C 3,1 km/h (1 Bft)
13.09.2014 15:50 15,3 C 65 % 1022,5 hPa 0,0 l/m 3,9 km/h (1 Bft) O-NO 67 8,8 C 16,2 C 4,0 km/h (1 Bft)
13.09.2014 16:00 14,7 C 68 % 1022,5 hPa 0,0 l/m 5,0 km/h (1 Bft) N-NO 22 8,9 C 15,1 C 5,1 km/h (1 Bft)
13.09.2014 16:10 14,7 C 69 % 1023,4 hPa 0,0 l/m 4,2 km/h (1 Bft) N-NO 22 9,1 C 14,8 C 3,7 km/h (1 Bft)
13.09.2014 16:20 14,6 C 71 % 1023,4 hPa 0,0 l/m 4,3 km/h (1 Bft) W-NW 292 9,4 C 14,7 C 4,8 km/h (1 Bft)
13.09.2014 16:30 14,8 C 71 % 1022,8 hPa 0,0 l/m 4,7 km/h (1 Bft) N-NW 337 9,6 C 15,1 C 5,5 km/h (1 Bft)
13.09.2014 16:38 14,8 C 72 % 1022,8 hPa 0,0 l/m 3,5 km/h (1 Bft) N-NO 22 9,8 C 15,1 C 1,6 km/h (1 Bft)
13.09.2014 16:40 14,8 C 72 % 1022,8 hPa 0,0 l/m 3,5 km/h (1 Bft) N-NO 22 9,8 C 15,1 C 1,6 km/h (1 Bft)
13.09.2014 16:50 14,2 C 74 % 1022,6 hPa 0,0 l/m 0,5 km/h (0 Bft) N-NO 22 9,6 C 15,0 C 0,0 km/h (0 Bft)
13.09.2014 17:00 13,8 C 75 % 1022,6 hPa 0,0 l/m 1,6 km/h (1 Bft) O 90 9,4 C 14,4 C 1,6 km/h (1 Bft)
13.09.2014 17:10 13,8 C 76 % 1022,6 hPa 0,0 l/m 0,8 km/h (0 Bft) S-SW 202 9,6 C 14,3 C 0,0 km/h (0 Bft)
13.09.2014 17:20 14,0 C 77 % 1022,6 hPa 0,0 l/m 1,4 km/h (1 Bft) O-NO 67 10,0 C 14,1 C 0,0 km/h (0 Bft)
13.09.2014 17:30 13,6 C 77 % 1022,6 hPa 0,0 l/m 2,3 km/h (1 Bft) O 90 9,6 C 14,1 C 3,9 km/h (1 Bft)
13.09.2014 17:40 13,3 C 78 % 1022,6 hPa 0,0 l/m 1,6 km/h (1 Bft) O-NO 67 9,5 C 13,7 C 3,4 km/h (1 Bft)
13.09.2014 17:50 13,2 C 79 % 1022,7 hPa 0,0 l/m 1,1 km/h (1 Bft) O-SO 112 9,6 C 13,2 C 2,6 km/h (1 Bft)
13.09.2014 18:00 13,2 C 80 % 1022,7 hPa 0,0 l/m 1,0 km/h (0 Bft) O 90 9,8 C 13,4 C 0,0 km/h (0 Bft)
13.09.2014 18:10 13,4 C 80 % 1022,6 hPa 0,0 l/m 0,0 km/h (0 Bft) NW 315 10,0 C 13,6 C 0,0 km/h (0 Bft)
13.09.2014 18:20 13,4 C 80 % 1022,6 hPa 0,0 l/m 0,3 km/h (0 Bft) SW 225 10,0 C 13,7 C 2,1 km/h (1 Bft)
13.09.2014 18:30 13,2 C 80 % 1022,4 hPa 0,0 l/m 1,6 km/h (1 Bft) W 270 9,8 C 13,6 C 0,0 km/h (0 Bft)
13.09.2014 18:40 12,9 C 82 % 1022,4 hPa 0,0 l/m 1,1 km/h (1 Bft) W-SW 247 9,9 C 13,3 C 0,0 km/h (0 Bft)
13.09.2014 18:50 12,6 C 82 % 1022,3 hPa 0,0 l/m 0,8 km/h (0 Bft) S-SW 202 9,6 C 13,0 C 0,0 km/h (0 Bft)
13.09.2014 19:00 12,4 C 83 % 1022,3 hPa 0,0 l/m 0,0 km/h (0 Bft) W-SW 247 9,6 C 12,3 C 0,0 km/h (0 Bft)
13.09.2014 19:10 12,2 C 85 % 1022,4 hPa 0,0 l/m 0,2 km/h (0 Bft) W-SW 247 9,8 C 11,9 C 3,2 km/h (1 Bft)
13.09.2014 19:20 12,2 C 85 % 1022,4 hPa 0,0 l/m 1,9 km/h (1 Bft) W-NW 292 9,8 C 11,9 C 2,1 km/h (1 Bft)
13.09.2014 19:30 12,1 C 86 % 1022,1 hPa 0,0 l/m 0,8 km/h (0 Bft) S 180 9,8 C 12,0 C 0,0 km/h (0 Bft)
13.09.2014 19:40 11,8 C 87 % 1022,1 hPa 0,0 l/m 0,8 km/h (0 Bft) N-NO 22 9,7 C 11,7 C 0,0 km/h (0 Bft)
13.09.2014 19:50 11,6 C 87 % 1021,9 hPa 0,0 l/m 0,0 km/h (0 Bft) S-SO 157 9,5 C 11,4 C 0,0 km/h (0 Bft)
13.09.2014 20:00 11,5 C 88 % 1021,9 hPa 0,0 l/m 0,0 km/h (0 Bft) SO 135 9,6 C 11,2 C 0,0 km/h (0 Bft)
13.09.2014 20:10 11,5 C 88 % 1022,5 hPa 0,0 l/m 0,5 km/h (0 Bft) S-SW 202 9,6 C 11,2 C 0,0 km/h (0 Bft)
13.09.2014 20:20 11,5 C 88 % 1022,5 hPa 0,0 l/m 0,0 km/h (0 Bft) S 180 9,6 C 11,1 C 1,6 km/h (1 Bft)
13.09.2014 20:30 11,5 C 88 % 1022,2 hPa 0,0 l/m 2,9 km/h (1 Bft) S 180 9,6 C 11,1 C 5,5 km/h (1 Bft)
13.09.2014 20:38 11,3 C 89 % 1022,2 hPa 0,0 l/m 0,6 km/h (0 Bft) SO 135 9,6 C 11,0 C 0,0 km/h (0 Bft)
13.09.2014 20:40 11,3 C 89 % 1022,2 hPa 0,0 l/m 0,6 km/h (0 Bft) SO 135 9,6 C 11,0 C 0,0 km/h (0 Bft)
13.09.2014 20:50 11,3 C 89 % 1022,3 hPa 0,0 l/m 0,8 km/h (0 Bft) N-NW 337 9,6 C 10,9 C 2,7 km/h (1 Bft)
13.09.2014 21:00 11,1 C 91 % 1022,3 hPa 0,0 l/m 0,2 km/h (0 Bft) SO 135 9,7 C 10,8 C 0,0 km/h (0 Bft)
13.09.2014 21:10 11,0 C 92 % 1022,4 hPa 0,0 l/m 0,6 km/h (0 Bft) SO 135 9,8 C 10,7 C 0,0 km/h (0 Bft)
13.09.2014 21:20 11,0 C 92 % 1022,4 hPa 0,0 l/m 0,0 km/h (0 Bft) S-SO 157 9,8 C 10,7 C 0,0 km/h (0 Bft)
13.09.2014 21:30 11,0 C 93 % 1022,2 hPa 0,0 l/m 0,3 km/h (0 Bft) W-SW 247 9,9 C 10,7 C 2,9 km/h (1 Bft)
13.09.2014 21:40 11,0 C 93 % 1022,2 hPa 0,0 l/m 1,3 km/h (1 Bft) SO 135 9,9 C 10,7 C 2,6 km/h (1 Bft)
13.09.2014 21:50 10,9 C 93 % 1022,2 hPa 0,0 l/m 0,8 km/h (0 Bft) S 180 9,8 C 10,6 C 2,6 km/h (1 Bft)
13.09.2014 22:00 11,0 C 93 % 1022,2 hPa 0,0 l/m 2,3 km/h (1 Bft) SW 225 9,9 C 10,6 C 3,1 km/h (1 Bft)
13.09.2014 22:10 10,9 C 93 % 1022,1 hPa 0,0 l/m 1,0 km/h (0 Bft) SO 135 9,8 C 10,6 C 2,6 km/h (1 Bft)
13.09.2014 22:20 10,9 C 94 % 1022,1 hPa 0,0 l/m 1,1 km/h (1 Bft) O-SO 112 10,0 C 10,6 C 0,0 km/h (0 Bft)
13.09.2014 22:30 11,0 C 94 % 1022,1 hPa 0,0 l/m 2,1 km/h (1 Bft) SO 135 10,1 C 10,6 C 2,9 km/h (1 Bft)
13.09.2014 22:40 11,0 C 94 % 1022,1 hPa 0,0 l/m 2,4 km/h (1 Bft) S-SO 157 10,1 C 10,6 C 3,5 km/h (1 Bft)
13.09.2014 22:50 10,9 C 94 % 1022,0 hPa 0,0 l/m 2,3 km/h (1 Bft) SW 225 10,0 C 10,5 C 5,8 km/h (2 Bft)
13.09.2014 23:00 10,9 C 94 % 1022,0 hPa 0,0 l/m 3,4 km/h (1 Bft) S 180 10,0 C 10,6 C 4,3 km/h (1 Bft)
13.09.2014 23:10 10,9 C 94 % 1021,9 hPa 0,0 l/m 2,6 km/h (1 Bft) S 180 10,0 C 10,6 C 7,4 km/h (2 Bft)
13.09.2014 23:20 10,9 C 94 % 1021,9 hPa 0,0 l/m 1,4 km/h (1 Bft) S-SW 202 10,0 C 10,5 C 1,8 km/h (1 Bft)
13.09.2014 23:30 10,9 C 94 % 1021,6 hPa 0,0 l/m 1,1 km/h (1 Bft) S 180 10,0 C 10,5 C 5,8 km/h (2 Bft)
13.09.2014 23:39 11,0 C 94 % 1021,6 hPa 0,0 l/m 4,5 km/h (1 Bft) S 180 10,1 C 10,4 C 1,9 km/h (1 Bft)
13.09.2014 23:40 11,0 C 94 % 1021,6 hPa 0,0 l/m 4,5 km/h (1 Bft) S 180 10,1 C 10,4 C 1,9 km/h (1 Bft)
13.09.2014 23:50 10,9 C 94 % 1021,2 hPa 0,0 l/m 0,3 km/h (0 Bft) W-SW 247 10,0 C 10,5 C 0,0 km/h (0 Bft)
_ Min-Zeit 04:40 15:00 01:00 - 21:20 - - 04:00 06:50 23:50
Minimum _ 8,8 C 54 % 1018,8 hPa - 0,0 km/h (0 Bft) - - 7,8 C 8,2 C 0,0 km/h (0 Bft)
_ Max-Zeit 14:20 09:40 16:20 23:50 14:10 - - 12:00 14:20 06:50
Maximum _ 19,7 C 95 % 1023,4 hPa 0,0 l/m 7,1 km/h
W-SW (2 Bft)
- - 12,4 C 21,0 C 13,8 km/h
W (3 Bft)
Durchschnitt _ 11,6 C 87 % 1021,2 hPa #0,0 l/m 2,4 km/h (1 Bft) W-SW - 9,4 C 11,7 C 3,3 km/h (1 Bft)